Location: Litvinovka
(48.6667°N, 34.3500°E)
Time: 00:48:58
(UTC+00:00)

Lacrosse 4 Rocket - Pass Details

Date: 18 September 2020
Orbit: 543 x 615 km, 68.0° (Epoch: 23 October)

Event Time Altitude Azimuth Distance (km) Brightness Sun altitude
Rises 19:22:18 0° 330° (NNW) 2,717 5.9 -32.1°
Reaches altitude 10° 19:24:32 10° 335° (NNW) 1,823 4.8 -32.3°
Enters shadow 19:25:50 19° 342° (NNW) 1,334 3.8 -32.5°
